This demonstration page uses our WeatherBlox Daily Observations layout. Learn more.

Left ArrowRight Arrow

Hourly Observations for October 12, 2016

Temp ( °F °C ) Dew Point ( °F °C ) Humidity (%) Winds ( mph kmh ) Pressure ( in mb ) Visibility ( mi km ) Precip ( " mm )
12:53 am 00:53 Clear 15 -9.4 14 -10 95 95 Calm 30.40 1029 10 16 0.00 0.00
1:53 am 01:53 Clear 15 -9.4 12 -11.1 88 88 Calm 30.36 1028 10 16 0.00 0.00
2:53 am 02:53 Clear 14 -10 13 -10.6 95 95 NE 3 6 30.35 1028 10 16 0.00 0.00
3:53 am 03:53 Clear 14 -10 11 -11.7 88 88 E 3 6 30.33 1027 10 16 0.00 0.00
4:53 am 04:53 Clear 13 -10.6 11 -11.7 92 92 NNE 3 6 30.30 1026 10 16 0.00 0.00
5:53 am 05:53 Clear 11 -11.7 10 -12.2 96 96 Calm 30.29 1026 10 16 0.00 0.00
6:53 am 06:53 Clear 10 -12.2 8 -13.3 92 92 ESE 5 7 30.29 1026 9 14 0.00 0.00
7:53 am 07:53 Mostly Sunny 9 -12.8 8 -13.3 96 96 Calm 30.29 1026 9 14 0.00 0.00
8:53 am 08:53 Sunny 10 -12.2 10 -12.2 100 100 Calm 30.28 1025 10 16 0.00 0.00
9:13 am 09:13 Partly Cloudy 10 -12.2 10 -12.2 100 100 Calm 30.39 1029 10 16 0.00 0.00
9:25 am 09:25 Mostly Cloudy 12 -11.1 12 -11.1 100 100 Calm 30.36 1028 10 16 0.00 0.00
9:53 am 09:53 Mostly Cloudy 12 -11.1 11 -11.7 95 95 Calm 30.27 1025 10 16 0.00 0.00
10:08 am 10:08 Mostly Sunny 16 -9 12 -11 86 86 Calm 30.30 1026 10 16 0.00 0.00
10:53 am 10:53 Sunny 17 -8.3 16 -8.9 95 95 Calm 30.25 1025 10 16 0.00 0.00
11:53 am 11:53 Sunny 21 -6.1 16 -8.9 81 81 ENE 3 6 30.23 1024 10 16 0.00 0.00
12:53 pm 12:53 Sunny 25 -3.9 18 -7.8 75 75 NE 5 7 30.22 1023 10 16 0.00 0.00
1:53 pm 13:53 Sunny 25 -3.9 19 -7.2 78 78 E 5 7 30.20 1023 10 16 0.00 0.00
2:53 pm 14:53 Sunny 28 -2.2 21 -6.1 75 75 ENE 5 7 30.18 1022 10 16 0.00 0.00
3:53 pm 15:53 Sunny 29 -1.7 22 -5.6 75 75 ENE 5 7 30.16 1021 10 16 0.00 0.00
4:53 pm 16:53 Sunny 29 -1.7 23 -5 78 78 E 6 9 30.14 1021 10 16 0.00 0.00
5:53 pm 17:53 Sunny 27 -2.8 22 -5.6 81 81 undefined N/A 30.14 1021 10 16 0.00 0.00
6:53 pm 18:53 Clear 23 -5 20 -6.7 88 88 ENE 3 6 30.16 1021 10 16 0.00 0.00
7:53 pm 19:53 Clear 21 -6.1 18 -7.8 88 88 E 6 9 30.17 1022 10 16 0.00 0.00
8:53 pm 20:53 Clear 21 -6.1 19 -7.2 92 92 ENE 3 6 30.16 1022 10 16 0.00 0.00
9:53 pm 21:53 Clear 19 -7.2 18 -7.8 96 96 NNE 3 6 30.17 1022 10 16 0.00 0.00
10:53 pm 22:53 Clear 15 -9.4 14 -10 95 95 ENE 3 6 30.17 1022 10 16 0.00 0.00
11:53 pm 23:53 Clear 17 -8.3 15 -9.4 92 92 Calm 30.15 1021 10 16 0.00 0.00

Powered by AerisWeather